User: anonymous   Login
Location: Larrial
(48.2758°N, 4.5331°W)
Time: 06:15:00
(UTC+00:00)
Language:

LilacSat-2 - Orbit

View from above orbital plane
View from above orbital plane
View from above satellite
View from above satellite

Ground track
Ground track

The orbit data is extracted from the following two-line orbital elements,

1 40908U 15049K   21338.80929461  .00001483  00000-0  83428-4 0  9991
2 40908  97.5113 336.5832 0014955 336.8327 146.6780 15.14749182343010
Epoch (UTC): 04 December 2021 19:25:23
Eccentricity: 0.0014955
inclination: 97.5113°
perigee height: 511 km
apogee height: 532 km
right ascension of ascending node: 336.5832°
argument of perigee: 336.8327°
revolutions per day: 15.14749182
mean anomaly at epoch: 146.6780°
orbit number at epoch: 34301

The dashed part of the orbit path shows where the satellite is in the earth's shadow,  

DLR